DW8248 Weather Reports


time (UTC)temp
F
wind
direction
speed
knots
gust
knots
rain 1hr
in
rain 24hr
in
rain mn
in
humidity
%
barometer
mb
20260503023917 76 293 9.6 15.6 0.00 0.00 0.00 79 1012.1
20260503022928 76 308 12.2 15.6 0.00 0.00 0.00 79 1012.1
20260503021935 76 305 11.3 14.8 0.00 0.00 0.00 80 1011.9
20260503020919 77 313 9.6 12.2 0.00 0.00 0.00 78 1011.6
20260503014811 77 275 7.8 11.3 0.00 0.00 0.00 76 1011.1
20260503013833 78 284 7.8 11.3 0.00 0.00 0.00 74 1011.1
20260503012806 77 265 3.5 7.0 0.00 0.00 0.00 73 1010.0
20260503011759 77 225 4.3 12.2 0.00 0.00 0.00 73 1009.8
20260503010736 78 220 9.6 17.4 0.00 0.00 0.00 73 1010.2
20260503005729 78 205 13.0 17.4 0.00 0.00 0.00 73 1010.3
20260503004735 78 198 11.3 16.5 0.00 0.00 0.00 72 1010.2
20260503003712 78 215 10.4 15.6 0.00 0.00 0.00 72 1010.1
20260503002637 78 200 5.2 10.4 0.00 0.00 0.00 71 1009.8
20260503001640 78 247 7.0 13.9 0.00 0.00 0.00 71 1009.7
20260503000638 78 219 11.3 17.4 0.00 0.00 0.00 71 1010.6
20260502235632 78 239 13.0 17.4 0.00 0.00 0.00 71 1011.0
20260502234617 78 242 13.0 17.4 0.00 0.00 0.00 72 1011.0
20260502233606 78 271 14.8 19.1 0.00 0.00 0.00 72 1010.8
20260502232552 78 265 13.0 19.1 0.00 0.00 0.00 71 1011.0
20260502231605 78 249 13.9 19.1 0.00 0.00 0.00 70 1010.6
20260502225442 78 278 13.0 16.5 0.00 0.00 0.00 70 1010.4
20260502222142 78 279 9.6 13.0 0.00 0.00 0.00 69 1010.0
20260502221203 78 286 11.3 20.0 0.00 0.00 0.00 70 1010.0
20260502220130 78 277 14.8 20.0 0.00 0.00 0.00 69 1010.1
20260502213918 79 296 17.4 26.1 0.00 0.00 0.00 69 1010.2
20260502212856 79 290 24.3 33.0 0.00 0.00 0.00 67 1010.3
20260502211851 79 317 20.0 33.0 0.00 0.00 0.00 66 1010.4
20260502210906 86 298 13.0 23.5 0.00 0.00 0.00 62 1009.8
20260502204650 86 279 15.6 22.6 0.00 0.00 0.00 59 1009.5
20260502203711 87 282 13.0 16.5 0.00 0.00 0.00 60 1009.4
20260502202729 87 275 13.0 19.1 0.00 0.00 0.00 61 1009.4
20260502201726 87 272 13.0 19.1 0.00 0.00 0.00 58 1009.3
20260502200742 87 278 12.2 18.2 0.00 0.00 0.00 59 1009.3
20260502195756 88 273 13.0 18.2 0.00 0.00 0.00 56 1009.2
20260502194804 87 265 8.7 13.9 0.00 0.00 0.00 58 1009.4
20260502192638 87 275 13.0 21.7 0.00 0.00 0.00 62 1009.8
20260502191604 88 279 15.6 21.7 0.00 0.00 0.00 56 1009.7
20260502185436 88 266 11.3 15.6 0.00 0.00 0.00 58 1009.8
20260502183344 87 285 6.1 11.3 0.00 0.00 0.00 62 1009.7
20260502181221 87 268 12.2 18.2 0.00 0.00 0.00 60 1009.8
20260502180207 87 286 13.9 20.9 0.00 0.00 0.00 63 1009.9
20260502164011 84 239 4.3 10.4 0.00 0.00 0.00 68 1010.5
20260502163007 84 227 7.0 10.4 0.00 0.00 0.00 67 1010.7
20260502162012 84 223 7.8 12.2 0.00 0.00 0.00 68 1010.7
20260502161015 84 225 9.6 13.0 0.00 0.00 0.00 67 1010.8
20260502151753 82 238 9.6 15.6 0.00 0.00 0.00 71 1011.4
20260502150755 81 211 11.3 15.6 0.00 0.00 0.00 74 1011.4
20260502130404 77 195 8.7 11.3 0.00 0.00 0.00 77 1010.6
20260502123400 74 188 6.1 9.6 0.00 0.00 0.00 85 1010.7
20260502121305 73 214 6.1 9.6 0.00 0.00 0.00 86 1010.8
20260502115100 73 219 7.0 9.6 0.00 0.00 0.00 86 1010.6
20260502114044 72 209 7.0 8.7 0.00 0.00 0.00 86 1010.6
20260502113058 72 220 6.1 7.8 0.00 0.00 0.00 86 1010.5
20260502112110 72 221 6.1 7.8 0.00 0.00 0.00 86 1010.5
20260502111105 72 200 6.1 7.8 0.00 0.00 0.00 86 1010.4
20260502104943 72 211 6.1 7.8 0.00 0.00 0.00 85 1010.3
20260502103952 72 223 5.2 7.0 0.00 0.00 0.00 85 1010.3
20260502102917 73 216 5.2 7.0 0.00 0.00 0.00 84 1010.1
20260502101908 73 239 4.3 7.0 0.00 0.00 0.00 84 1010.0
20260502100902 73 231 3.5 6.1 0.00 0.00 0.00 84 1010.1
20260502090626 74 231 7.0 11.3 0.00 0.00 0.00 81 1010.4
20260502071405 76 223 7.0 9.6 0.00 0.00 0.00 75 1010.1
20260502070405 77 219 7.0 9.6 0.00 0.00 0.00 74 1010.1
20260502065341 77 236 7.0 9.6 0.00 0.00 0.00 74 1010.1
20260502064359 77 244 7.0 8.7 0.00 0.00 0.00 72 1010.1
20260502063350 77 241 7.0 9.6 0.00 0.00 0.00 72 1010.1
20260502062410 77 231 7.0 9.6 0.00 0.00 0.00 72 1010.2
20260502061355 78 238 7.0 9.6 0.00 0.00 0.00 72 1010.2
20260502060400 78 219 7.0 9.6 0.00 0.00 0.00 72 1010.4
20260502055355 78 219 7.8 10.4 0.00 0.00 0.00 71 1010.5
20260502054321 78 219 8.7 10.4 0.00 0.00 0.00 71 1010.6
20260502053249 78 224 7.8 11.3 0.00 0.00 0.00 72 1010.5
20260502051106 79 200 8.7 11.3 0.00 0.00 0.00 72 1010.6
20260502050101 79 192 8.7 13.0 0.00 0.00 0.00 71 1010.6
20260502045042 79 216 9.6 13.0 0.00 0.00 0.00 72 1010.5
20260502044034 79 221 9.6 13.0 0.00 0.00 0.00 72 1010.6
20260502043023 79 206 9.6 13.9 0.00 0.00 0.00 75 1010.7
20260502042008 79 197 9.6 13.9 0.00 0.00 0.00 78 1010.7
20260502041013 78 185 9.6 13.0 0.00 0.00 0.00 78 1010.7
20260502034750 79 184 9.6 14.8 0.00 0.00 0.00 77 1010.6
20260502032630 80 180 12.2 17.4 0.00 0.00 0.00 77 1010.7
20260502031640 80 192 12.2 15.6 0.00 0.00 0.00 77 1010.7
20260502030633 80 158 12.2 15.6 0.00 0.00 0.00 77 1010.7